Year,Month,Day,Hour,Minute,Value (Times are PST for temperature in C)
2014,06,15,00,00,12.30
2014,06,15,00,01,12.30
2014,06,15,00,02,12.30
2014,06,15,00,03,12.30
2014,06,15,00,04,12.30
2014,06,15,00,05,12.30
2014,06,15,00,06,12.30
2014,06,15,00,07,12.30
2014,06,15,00,08,12.30
2014,06,15,00,09,12.30
2014,06,15,00,10,12.30
2014,06,15,00,11,12.30
2014,06,15,00,12,12.20
2014,06,15,00,13,12.20
2014,06,15,00,14,12.20
2014,06,15,00,15,12.20
2014,06,15,00,16,12.20
2014,06,15,00,17,12.20
2014,06,15,00,18,12.10
2014,06,15,00,19,12.10
2014,06,15,00,20,12.10
2014,06,15,00,21,12.10
2014,06,15,00,22,12.10
2014,06,15,00,23,12.10
2014,06,15,00,24,12.10
2014,06,15,00,25,12.10
2014,06,15,00,26,12.10
2014,06,15,00,27,12.10
2014,06,15,00,28,12.10
2014,06,15,00,29,12.10
2014,06,15,00,30,12.10
2014,06,15,00,31,12.10
2014,06,15,00,32,12.10
2014,06,15,00,33,12.10
2014,06,15,00,34,12.10
2014,06,15,00,35,12.10
2014,06,15,00,36,12.10
2014,06,15,00,37,12.10
2014,06,15,00,38,12.10
2014,06,15,00,39,12.20
2014,06,15,00,40,12.20
2014,06,15,00,41,12.20
2014,06,15,00,42,12.20
2014,06,15,00,43,12.20
2014,06,15,00,44,12.20
2014,06,15,00,45,12.20
2014,06,15,00,46,12.20
2014,06,15,00,47,12.20
2014,06,15,00,48,12.20
2014,06,15,00,49,12.20
2014,06,15,00,50,12.20
2014,06,15,00,51,12.20
2014,06,15,00,52,12.20
2014,06,15,00,53,12.20
2014,06,15,00,54,12.20
2014,06,15,00,55,12.20
2014,06,15,00,56,12.10
2014,06,15,00,57,12.10
2014,06,15,00,58,12.10
2014,06,15,00,59,12.10
2014,06,15,01,00,12.10
2014,06,15,01,01,12.10
2014,06,15,01,02,12.10
2014,06,15,01,03,12.10
2014,06,15,01,04,12.10
2014,06,15,01,05,12.10
2014,06,15,01,06,12.10
2014,06,15,01,07,12.10
2014,06,15,01,08,12.10
2014,06,15,01,09,12.10
2014,06,15,01,10,12.10
2014,06,15,01,11,12.10
2014,06,15,01,12,12.10
2014,06,15,01,13,12.10
2014,06,15,01,14,12.10
2014,06,15,01,15,12.10
2014,06,15,01,16,12.10
2014,06,15,01,17,12.10
2014,06,15,01,18,12.10
2014,06,15,01,19,12.10
2014,06,15,01,20,12.10
2014,06,15,01,21,12.00
2014,06,15,01,22,12.00
2014,06,15,01,23,12.00
2014,06,15,01,24,12.00
2014,06,15,01,25,12.00
2014,06,15,01,26,12.00
2014,06,15,01,27,12.00
2014,06,15,01,28,12.00
2014,06,15,01,29,11.90
2014,06,15,01,30,11.90
2014,06,15,01,31,11.90
2014,06,15,01,32,11.80
2014,06,15,01,33,11.80
2014,06,15,01,34,11.80
2014,06,15,01,35,11.80
2014,06,15,01,36,11.80
2014,06,15,01,37,11.80
2014,06,15,01,38,11.80
2014,06,15,01,39,11.80
2014,06,15,01,40,11.80
2014,06,15,01,41,11.80
2014,06,15,01,42,11.70
2014,06,15,01,43,11.70
2014,06,15,01,44,11.70
2014,06,15,01,45,11.70
2014,06,15,01,46,11.70
2014,06,15,01,47,11.60
2014,06,15,01,48,11.60
2014,06,15,01,49,11.60
2014,06,15,01,50,11.60
2014,06,15,01,51,11.60
2014,06,15,01,52,11.60
2014,06,15,01,53,11.50
2014,06,15,01,54,11.50
2014,06,15,01,55,11.40
2014,06,15,01,56,11.40
2014,06,15,01,57,11.40
2014,06,15,01,58,11.40
2014,06,15,01,59,11.40
2014,06,15,02,00,11.40
2014,06,15,02,01,11.40
2014,06,15,02,02,11.30
2014,06,15,02,03,11.30
2014,06,15,02,04,11.30
2014,06,15,02,05,11.30
2014,06,15,02,06,11.30
2014,06,15,02,07,11.30
2014,06,15,02,08,11.30
2014,06,15,02,09,11.30
2014,06,15,02,10,11.30
2014,06,15,02,11,11.30
2014,06,15,02,12,11.30
2014,06,15,02,13,11.20
2014,06,15,02,14,11.20
2014,06,15,02,15,11.20
2014,06,15,02,16,11.20
2014,06,15,02,17,11.10
2014,06,15,02,18,11.10
2014,06,15,02,19,11.10
2014,06,15,02,20,11.10
2014,06,15,02,21,11.00
2014,06,15,02,22,11.00
2014,06,15,02,23,11.00
2014,06,15,02,24,10.90
2014,06,15,02,25,10.90
2014,06,15,02,26,10.90
2014,06,15,02,27,10.90
2014,06,15,02,28,10.90
2014,06,15,02,29,10.90
2014,06,15,02,30,10.90
2014,06,15,02,31,10.80
2014,06,15,02,32,10.80
2014,06,15,02,33,10.80
2014,06,15,02,34,10.70
2014,06,15,02,35,10.70
2014,06,15,02,36,10.70
2014,06,15,02,37,10.60
2014,06,15,02,38,10.60
2014,06,15,02,39,10.60
2014,06,15,02,40,10.70
2014,06,15,02,41,10.70
2014,06,15,02,42,10.70
2014,06,15,02,43,10.70
2014,06,15,02,44,10.70
2014,06,15,02,45,10.70
2014,06,15,02,46,10.60
2014,06,15,02,47,10.60
2014,06,15,02,48,10.50
2014,06,15,02,49,10.50
2014,06,15,02,50,10.40
2014,06,15,02,51,10.40
2014,06,15,02,52,10.30
2014,06,15,02,53,10.30
2014,06,15,02,54,10.30
2014,06,15,02,55,10.30
2014,06,15,02,56,10.20
2014,06,15,02,57,10.20
2014,06,15,02,58,10.20
2014,06,15,02,59,10.20
2014,06,15,03,00,10.20
2014,06,15,03,01,10.20
2014,06,15,03,02,10.10
2014,06,15,03,03,10.10
2014,06,15,03,04,10.10
2014,06,15,03,05,10.10
2014,06,15,03,06,10.10
2014,06,15,03,07,10.00
2014,06,15,03,08,10.00
2014,06,15,03,09,9.90
2014,06,15,03,10,9.90
2014,06,15,03,11,9.90
2014,06,15,03,12,9.90
2014,06,15,03,13,9.80
2014,06,15,03,14,9.80
2014,06,15,03,15,9.80
2014,06,15,03,16,9.80
2014,06,15,03,17,9.80
2014,06,15,03,18,9.80
2014,06,15,03,19,9.80
2014,06,15,03,20,9.80
2014,06,15,03,21,9.80
2014,06,15,03,22,9.70
2014,06,15,03,23,9.70
2014,06,15,03,24,9.70
2014,06,15,03,25,9.70
2014,06,15,03,26,9.70
2014,06,15,03,27,9.70
2014,06,15,03,28,9.60
2014,06,15,03,29,9.60
2014,06,15,03,30,9.60
2014,06,15,03,31,9.60
2014,06,15,03,32,9.60
2014,06,15,03,33,9.50
2014,06,15,03,34,9.50
2014,06,15,03,35,9.50
2014,06,15,03,36,9.50
2014,06,15,03,37,9.50
2014,06,15,03,38,9.40
2014,06,15,03,39,9.40
2014,06,15,03,40,9.40
2014,06,15,03,41,9.40
2014,06,15,03,42,9.40
2014,06,15,03,43,9.40
2014,06,15,03,44,9.40
2014,06,15,03,45,9.40
2014,06,15,03,46,9.40
2014,06,15,03,47,9.40
2014,06,15,03,48,9.40
2014,06,15,03,49,9.30
2014,06,15,03,50,9.30
2014,06,15,03,51,9.30
2014,06,15,03,52,9.30
2014,06,15,03,53,9.30
2014,06,15,03,54,9.30
2014,06,15,03,55,9.30
2014,06,15,03,56,9.30
2014,06,15,03,57,9.20
2014,06,15,03,58,9.20
2014,06,15,03,59,9.20
2014,06,15,04,00,9.20
2014,06,15,04,01,9.20
2014,06,15,04,02,9.20
2014,06,15,04,03,9.20
2014,06,15,04,04,9.20
2014,06,15,04,05,9.20
2014,06,15,04,06,9.20
2014,06,15,04,07,9.20
2014,06,15,04,08,9.20
2014,06,15,04,09,9.20
2014,06,15,04,10,9.20
2014,06,15,04,11,9.20
2014,06,15,04,12,9.20
2014,06,15,04,13,9.20
2014,06,15,04,14,9.20
2014,06,15,04,15,9.20
2014,06,15,04,16,9.20
2014,06,15,04,17,9.10
2014,06,15,04,18,9.10
2014,06,15,04,19,9.10
2014,06,15,04,20,9.10
2014,06,15,04,21,9.10
2014,06,15,04,22,9.10
2014,06,15,04,23,9.10
2014,06,15,04,24,9.10
2014,06,15,04,25,9.10
2014,06,15,04,26,9.00
2014,06,15,04,27,9.00
2014,06,15,04,28,9.00
2014,06,15,04,29,8.90
2014,06,15,04,30,8.90
2014,06,15,04,31,8.90
2014,06,15,04,32,8.90
2014,06,15,04,33,8.90
2014,06,15,04,34,9.00
2014,06,15,04,35,9.00
2014,06,15,04,36,9.00
2014,06,15,04,37,9.00
2014,06,15,04,38,9.00
2014,06,15,04,39,9.00
2014,06,15,04,40,9.10
2014,06,15,04,41,9.10
2014,06,15,04,42,9.10
2014,06,15,04,43,9.10
2014,06,15,04,44,9.10
2014,06,15,04,45,9.10
2014,06,15,04,46,9.10
2014,06,15,04,47,9.10
2014,06,15,04,48,9.10
2014,06,15,04,49,9.10
2014,06,15,04,50,9.10
2014,06,15,04,51,9.00
2014,06,15,04,52,9.00
2014,06,15,04,53,9.00
2014,06,15,04,54,9.00
2014,06,15,04,55,8.90
2014,06,15,04,56,8.90
2014,06,15,04,57,8.90
2014,06,15,04,58,8.90
2014,06,15,04,59,8.90
2014,06,15,05,00,8.90
2014,06,15,05,01,8.90
2014,06,15,05,02,8.90
2014,06,15,05,03,8.90
2014,06,15,05,04,8.90
2014,06,15,05,05,8.90
2014,06,15,05,06,8.90
2014,06,15,05,07,8.90
2014,06,15,05,08,8.90
2014,06,15,05,09,8.80
2014,06,15,05,10,8.80
2014,06,15,05,11,8.80
2014,06,15,05,12,8.80
2014,06,15,05,13,8.80
2014,06,15,05,14,8.80
2014,06,15,05,15,8.80
2014,06,15,05,16,8.80
2014,06,15,05,17,8.80
2014,06,15,05,18,8.80
2014,06,15,05,19,8.80
2014,06,15,05,20,8.80
2014,06,15,05,21,8.80
2014,06,15,05,22,8.70
2014,06,15,05,23,8.70
2014,06,15,05,24,8.70
2014,06,15,05,25,8.70
2014,06,15,05,26,8.70
2014,06,15,05,27,8.70
2014,06,15,05,28,8.80
2014,06,15,05,29,8.80
2014,06,15,05,30,8.80
2014,06,15,05,31,8.80
2014,06,15,05,32,8.80
2014,06,15,05,33,8.80
2014,06,15,05,34,8.80
2014,06,15,05,35,8.80
2014,06,15,05,36,8.80
2014,06,15,05,37,8.80
2014,06,15,05,38,8.80
2014,06,15,05,39,8.70
2014,06,15,05,40,8.70
2014,06,15,05,41,8.70
2014,06,15,05,42,8.70
2014,06,15,05,43,8.70
2014,06,15,05,44,8.70
2014,06,15,05,45,8.80
2014,06,15,05,46,8.80
2014,06,15,05,47,8.80
2014,06,15,05,48,8.80
2014,06,15,05,49,8.80
2014,06,15,05,50,8.80
2014,06,15,05,51,8.80
2014,06,15,05,52,8.80
2014,06,15,05,53,8.80
2014,06,15,05,54,8.80
2014,06,15,05,55,8.80
2014,06,15,05,56,8.80
2014,06,15,05,57,8.90
2014,06,15,05,58,8.90
2014,06,15,05,59,8.90
2014,06,15,06,00,8.90
2014,06,15,06,01,8.90
2014,06,15,06,02,8.90
2014,06,15,06,03,8.80
2014,06,15,06,04,8.80
2014,06,15,06,05,8.80
2014,06,15,06,06,8.80
2014,06,15,06,07,8.80
2014,06,15,06,08,8.80
2014,06,15,06,09,8.90
2014,06,15,06,10,8.90
2014,06,15,06,11,8.90
2014,06,15,06,12,8.90
2014,06,15,06,13,9.00
2014,06,15,06,14,9.10
2014,06,15,06,15,9.10
2014,06,15,06,16,9.20
2014,06,15,06,17,9.20
2014,06,15,06,18,9.30
2014,06,15,06,19,9.40
2014,06,15,06,20,9.50
2014,06,15,06,21,9.60
2014,06,15,06,22,9.80
2014,06,15,06,23,9.90
2014,06,15,06,24,10.00
2014,06,15,06,25,10.10
2014,06,15,06,26,10.20
2014,06,15,06,27,10.30
2014,06,15,06,28,10.50
2014,06,15,06,29,10.70
2014,06,15,06,30,10.80
2014,06,15,06,31,10.90
2014,06,15,06,32,11.10
2014,06,15,06,33,11.30
2014,06,15,06,34,11.40
2014,06,15,06,35,11.60
2014,06,15,06,36,11.70
2014,06,15,06,37,11.80
2014,06,15,06,38,11.90
2014,06,15,06,39,12.00
2014,06,15,06,40,12.10
2014,06,15,06,41,12.10
2014,06,15,06,42,12.10
2014,06,15,06,43,12.10
2014,06,15,06,44,12.10
2014,06,15,06,45,12.20
2014,06,15,06,46,12.10
2014,06,15,06,47,12.10
2014,06,15,06,48,12.10
2014,06,15,06,49,12.10
2014,06,15,06,50,12.10
2014,06,15,06,51,12.10
2014,06,15,06,52,12.10
2014,06,15,06,53,12.10
2014,06,15,06,54,12.10
2014,06,15,06,55,12.10
2014,06,15,06,56,12.10
2014,06,15,06,57,12.10
2014,06,15,06,58,12.20
2014,06,15,06,59,12.20
2014,06,15,07,00,12.20
2014,06,15,07,01,12.30
2014,06,15,07,02,12.30
2014,06,15,07,03,12.40
2014,06,15,07,04,12.40
2014,06,15,07,05,12.50
2014,06,15,07,06,12.50
2014,06,15,07,07,12.60
2014,06,15,07,08,12.60
2014,06,15,07,09,12.70
2014,06,15,07,10,12.70
2014,06,15,07,11,12.70
2014,06,15,07,12,12.80
2014,06,15,07,13,12.80
2014,06,15,07,14,12.80
2014,06,15,07,15,12.90
2014,06,15,07,16,12.90
2014,06,15,07,17,13.00
2014,06,15,07,18,13.00
2014,06,15,07,19,13.10
2014,06,15,07,20,13.10
2014,06,15,07,21,13.20
2014,06,15,07,22,13.20
2014,06,15,07,23,13.30
2014,06,15,07,24,13.30
2014,06,15,07,25,13.40
2014,06,15,07,26,13.50
2014,06,15,07,27,13.60
2014,06,15,07,28,13.70
2014,06,15,07,29,13.70
2014,06,15,07,30,13.80
2014,06,15,07,31,13.80
2014,06,15,07,32,13.80
2014,06,15,07,33,13.90
2014,06,15,07,34,13.90
2014,06,15,07,35,13.90
2014,06,15,07,36,13.90
2014,06,15,07,37,13.90
2014,06,15,07,38,13.90
2014,06,15,07,39,13.90
2014,06,15,07,40,13.90
2014,06,15,07,41,13.90
2014,06,15,07,42,13.90
2014,06,15,07,43,13.90
2014,06,15,07,44,13.90
2014,06,15,07,45,14.00
2014,06,15,07,46,14.00
2014,06,15,07,47,14.00
2014,06,15,07,48,14.00
2014,06,15,07,49,13.90
2014,06,15,07,50,13.80
2014,06,15,07,51,13.80
2014,06,15,07,52,13.80
2014,06,15,07,53,13.90
2014,06,15,07,54,13.90
2014,06,15,07,55,13.90
2014,06,15,07,56,14.00
2014,06,15,07,57,14.00
2014,06,15,07,58,14.00
2014,06,15,07,59,14.00
2014,06,15,08,00,14.10
2014,06,15,08,01,14.10
2014,06,15,08,02,14.10
2014,06,15,08,03,14.10
2014,06,15,08,04,14.10
2014,06,15,08,05,14.10
2014,06,15,08,06,14.10
2014,06,15,08,07,14.10
2014,06,15,08,08,14.00
2014,06,15,08,09,14.00
2014,06,15,08,10,14.00
2014,06,15,08,11,13.90
2014,06,15,08,12,13.90
2014,06,15,08,13,13.80
2014,06,15,08,14,13.80
2014,06,15,08,15,13.80
2014,06,15,08,16,13.80
2014,06,15,08,17,13.80
2014,06,15,08,18,13.80
2014,06,15,08,19,13.70
2014,06,15,08,20,13.70
2014,06,15,08,21,13.70
2014,06,15,08,22,13.70
2014,06,15,08,23,13.60
2014,06,15,08,24,13.60
2014,06,15,08,25,13.50
2014,06,15,08,26,13.50
2014,06,15,08,27,13.40
2014,06,15,08,28,13.40
2014,06,15,08,29,13.40
2014,06,15,08,30,13.40
2014,06,15,08,31,13.30
2014,06,15,08,32,13.30
2014,06,15,08,33,13.30
2014,06,15,08,34,13.30
2014,06,15,08,35,13.30
2014,06,15,08,36,13.30
2014,06,15,08,37,13.30
2014,06,15,08,38,13.30
2014,06,15,08,39,13.30
2014,06,15,08,40,13.30
2014,06,15,08,41,13.30
2014,06,15,08,42,13.30
2014,06,15,08,43,13.30
2014,06,15,08,44,13.30
2014,06,15,08,45,13.30
2014,06,15,08,46,13.30
2014,06,15,08,47,13.30
2014,06,15,08,48,13.30
2014,06,15,08,49,13.30
2014,06,15,08,50,13.30
2014,06,15,08,51,13.30
2014,06,15,08,52,13.30
2014,06,15,08,53,13.30
2014,06,15,08,54,13.30
2014,06,15,08,55,13.30
2014,06,15,08,56,13.30
2014,06,15,08,57,13.40
2014,06,15,08,58,13.40
2014,06,15,08,59,13.50
2014,06,15,09,00,13.60
2014,06,15,09,01,13.60
2014,06,15,09,02,13.70
2014,06,15,09,03,13.70
2014,06,15,09,04,13.80
2014,06,15,09,05,13.80
2014,06,15,09,06,13.80
2014,06,15,09,07,13.90
2014,06,15,09,08,13.90
2014,06,15,09,09,13.90
2014,06,15,09,10,13.90
2014,06,15,09,11,13.90
2014,06,15,09,12,13.90
2014,06,15,09,13,13.80
2014,06,15,09,14,13.80
2014,06,15,09,15,13.80
2014,06,15,09,16,13.80
2014,06,15,09,17,13.80
2014,06,15,09,18,13.80
2014,06,15,09,19,13.80
2014,06,15,09,20,13.80
2014,06,15,09,21,13.80
2014,06,15,09,22,13.90
2014,06,15,09,23,13.90
2014,06,15,09,24,14.00
2014,06,15,09,25,14.00
2014,06,15,09,26,14.10
2014,06,15,09,27,14.10
2014,06,15,09,28,14.10
2014,06,15,09,29,14.20
2014,06,15,09,30,14.30
2014,06,15,09,31,14.30
2014,06,15,09,32,14.30
2014,06,15,09,33,14.40
2014,06,15,09,34,14.50
2014,06,15,09,35,14.50
2014,06,15,09,36,14.50
2014,06,15,09,37,14.50
2014,06,15,09,38,14.50
2014,06,15,09,39,14.40
2014,06,15,09,40,14.40
2014,06,15,09,41,14.40
2014,06,15,09,42,14.40
2014,06,15,09,43,14.40
2014,06,15,09,44,14.30
2014,06,15,09,45,14.30
2014,06,15,09,46,14.30
2014,06,15,09,47,14.30
2014,06,15,09,48,14.20
2014,06,15,09,49,14.10
2014,06,15,09,50,14.10
2014,06,15,09,51,14.10
2014,06,15,09,52,14.10
2014,06,15,09,53,14.00
2014,06,15,09,54,14.00
2014,06,15,09,55,14.00
2014,06,15,09,56,14.00
2014,06,15,09,57,14.00
2014,06,15,09,58,14.00
2014,06,15,09,59,14.10
2014,06,15,10,00,14.10
2014,06,15,10,01,14.10
2014,06,15,10,02,14.20
2014,06,15,10,03,14.20
2014,06,15,10,04,14.30
2014,06,15,10,05,14.30
2014,06,15,10,06,14.30
2014,06,15,10,07,14.40
2014,06,15,10,08,14.40
2014,06,15,10,09,14.30
2014,06,15,10,10,14.30
2014,06,15,10,11,14.20
2014,06,15,10,12,14.10
2014,06,15,10,13,14.10
2014,06,15,10,14,14.00
2014,06,15,10,15,14.00
2014,06,15,10,16,14.10
2014,06,15,10,17,14.10
2014,06,15,10,18,14.20
2014,06,15,10,19,14.20
2014,06,15,10,20,14.20
2014,06,15,10,21,14.10
2014,06,15,10,22,14.10
2014,06,15,10,23,14.00
2014,06,15,10,24,14.00
2014,06,15,10,25,14.00
2014,06,15,10,26,14.00
2014,06,15,10,27,13.90
2014,06,15,10,28,14.00
2014,06,15,10,29,14.00
2014,06,15,10,30,14.00
2014,06,15,10,31,14.00
2014,06,15,10,32,14.00
2014,06,15,10,33,14.10
2014,06,15,10,34,14.10
2014,06,15,10,35,14.10
2014,06,15,10,36,14.20
2014,06,15,10,37,14.20
2014,06,15,10,38,14.20
2014,06,15,10,39,14.30
2014,06,15,10,40,14.30
2014,06,15,10,41,14.30
2014,06,15,10,42,14.30
2014,06,15,10,43,14.30
2014,06,15,10,44,14.30
2014,06,15,10,45,14.30
2014,06,15,10,46,14.30
2014,06,15,10,47,14.30
2014,06,15,10,48,14.20
2014,06,15,10,49,14.20
2014,06,15,10,50,14.20
2014,06,15,10,51,14.20
2014,06,15,10,52,14.20
2014,06,15,10,53,14.20
2014,06,15,10,54,14.20
2014,06,15,10,55,14.20
2014,06,15,10,56,14.20
2014,06,15,10,57,14.10
2014,06,15,10,58,14.10
2014,06,15,10,59,14.10
2014,06,15,11,00,14.00
2014,06,15,11,01,14.00
2014,06,15,11,02,13.90
2014,06,15,11,03,13.80
2014,06,15,11,04,13.70
2014,06,15,11,05,13.70
2014,06,15,11,06,13.60
2014,06,15,11,07,13.50
2014,06,15,11,08,13.50
2014,06,15,11,09,13.40
2014,06,15,11,10,13.40
2014,06,15,11,11,13.30
2014,06,15,11,12,13.30
2014,06,15,11,13,13.20
2014,06,15,11,14,13.20
2014,06,15,11,15,13.20
2014,06,15,11,16,13.10
2014,06,15,11,17,13.10
2014,06,15,11,18,13.00
2014,06,15,11,19,13.00
2014,06,15,11,20,12.90
2014,06,15,11,21,12.90
2014,06,15,11,22,12.90
2014,06,15,11,23,12.90
2014,06,15,11,24,12.90
2014,06,15,11,25,12.90
2014,06,15,11,26,12.90
2014,06,15,11,27,12.90
2014,06,15,11,28,12.90
2014,06,15,11,29,12.90
2014,06,15,11,30,12.90
2014,06,15,11,31,12.90
2014,06,15,11,32,12.90
2014,06,15,11,33,12.90
2014,06,15,11,34,13.00
2014,06,15,11,35,13.00
2014,06,15,11,36,13.00
2014,06,15,11,37,13.00
2014,06,15,11,38,13.10
2014,06,15,11,39,13.10
2014,06,15,11,40,13.10
2014,06,15,11,41,13.10
2014,06,15,11,42,13.20
2014,06,15,11,43,13.20
2014,06,15,11,44,13.20
2014,06,15,11,45,13.20
2014,06,15,11,46,13.30
2014,06,15,11,47,13.30
2014,06,15,11,48,13.30
2014,06,15,11,49,13.40
2014,06,15,11,50,13.40
2014,06,15,11,51,13.40
2014,06,15,11,52,13.40
2014,06,15,11,53,13.40
2014,06,15,11,54,13.40
2014,06,15,11,55,13.40
2014,06,15,11,56,13.40
2014,06,15,11,57,13.30
2014,06,15,11,58,13.30
2014,06,15,11,59,13.30
2014,06,15,12,00,13.30
2014,06,15,12,01,13.20
2014,06,15,12,02,13.20
2014,06,15,12,03,13.20
2014,06,15,12,04,13.20
2014,06,15,12,05,13.20
2014,06,15,12,06,13.10
2014,06,15,12,07,13.10
2014,06,15,12,08,13.00
2014,06,15,12,09,13.00
2014,06,15,12,10,13.00
2014,06,15,12,11,13.00
2014,06,15,12,12,13.00
2014,06,15,12,13,13.00
2014,06,15,12,14,13.10
2014,06,15,12,15,13.10
2014,06,15,12,16,13.10
2014,06,15,12,17,13.10
2014,06,15,12,18,13.10
2014,06,15,12,19,13.10
2014,06,15,12,20,13.10
2014,06,15,12,21,13.10
2014,06,15,12,22,13.10
2014,06,15,12,23,13.10
2014,06,15,12,24,13.10
2014,06,15,12,25,13.10
2014,06,15,12,26,13.20
2014,06,15,12,27,13.20
2014,06,15,12,28,13.20
2014,06,15,12,29,13.20
2014,06,15,12,30,13.20
2014,06,15,12,31,13.20
2014,06,15,12,32,13.20
2014,06,15,12,33,13.20
2014,06,15,12,34,13.20
2014,06,15,12,35,13.30
2014,06,15,12,36,13.30
2014,06,15,12,37,13.30
2014,06,15,12,38,13.40
2014,06,15,12,39,13.40
2014,06,15,12,40,13.50
2014,06,15,12,41,13.50
2014,06,15,12,42,13.50
2014,06,15,12,43,13.50
2014,06,15,12,44,13.50
2014,06,15,12,45,13.50
2014,06,15,12,46,13.50
2014,06,15,12,47,13.50
2014,06,15,12,48,13.40
2014,06,15,12,49,13.40
2014,06,15,12,50,13.50
2014,06,15,12,51,13.50
2014,06,15,12,52,13.40
2014,06,15,12,53,13.40
2014,06,15,12,54,13.40
2014,06,15,12,55,13.40
2014,06,15,12,56,13.30
2014,06,15,12,57,13.30
2014,06,15,12,58,13.30
2014,06,15,12,59,13.30
2014,06,15,13,00,13.30
2014,06,15,13,01,13.30
2014,06,15,13,02,13.20
2014,06,15,13,03,13.20
2014,06,15,13,04,13.20
2014,06,15,13,05,13.20
2014,06,15,13,06,13.20
2014,06,15,13,07,13.20
2014,06,15,13,08,13.20
2014,06,15,13,09,13.20
2014,06,15,13,10,13.20
2014,06,15,13,11,13.20
2014,06,15,13,12,13.30
2014,06,15,13,13,13.20
2014,06,15,13,14,13.20
2014,06,15,13,15,13.30
2014,06,15,13,16,13.30
2014,06,15,13,17,13.30
2014,06,15,13,18,13.30
2014,06,15,13,19,13.20
2014,06,15,13,20,13.30
2014,06,15,13,21,13.30
2014,06,15,13,22,13.20
2014,06,15,13,23,13.20
2014,06,15,13,24,13.20
2014,06,15,13,25,13.20
2014,06,15,13,26,13.20
2014,06,15,13,27,13.20
2014,06,15,13,28,13.20
2014,06,15,13,29,13.10
2014,06,15,13,30,13.10
2014,06,15,13,31,13.10
2014,06,15,13,32,13.10
2014,06,15,13,33,13.10
2014,06,15,13,34,13.10
2014,06,15,13,35,13.10
2014,06,15,13,36,13.00
2014,06,15,13,37,13.00
2014,06,15,13,38,13.10
2014,06,15,13,39,13.10
2014,06,15,13,40,13.10
2014,06,15,13,41,13.10
2014,06,15,13,42,13.10
2014,06,15,13,43,13.10
2014,06,15,13,44,13.10
2014,06,15,13,45,13.10
2014,06,15,13,46,13.10
2014,06,15,13,47,13.10
2014,06,15,13,48,13.10
2014,06,15,13,49,13.20
2014,06,15,13,50,13.20
2014,06,15,13,51,13.20
2014,06,15,13,52,13.20
2014,06,15,13,53,13.10
2014,06,15,13,54,13.10
2014,06,15,13,55,13.10
2014,06,15,13,56,13.00
2014,06,15,13,57,13.00
2014,06,15,13,58,12.90
2014,06,15,13,59,12.90
2014,06,15,14,00,12.90
2014,06,15,14,01,12.90
2014,06,15,14,02,12.90
2014,06,15,14,03,12.90
2014,06,15,14,04,12.90
2014,06,15,14,05,12.90
2014,06,15,14,06,12.90
2014,06,15,14,07,12.90
2014,06,15,14,08,13.00
2014,06,15,14,09,13.00
2014,06,15,14,10,12.90
2014,06,15,14,11,12.90
2014,06,15,14,12,12.80
2014,06,15,14,13,12.80
2014,06,15,14,14,12.70
2014,06,15,14,15,12.70
2014,06,15,14,16,12.70
2014,06,15,14,17,12.70
2014,06,15,14,18,12.70
2014,06,15,14,19,12.70
2014,06,15,14,20,12.70
2014,06,15,14,21,12.70
2014,06,15,14,22,12.70
2014,06,15,14,23,12.70
2014,06,15,14,24,12.70
2014,06,15,14,25,12.70
2014,06,15,14,26,12.70
2014,06,15,14,27,12.70
2014,06,15,14,28,12.70
2014,06,15,14,29,12.70
2014,06,15,14,30,12.70
2014,06,15,14,31,12.70
2014,06,15,14,32,12.70
2014,06,15,14,33,12.70
2014,06,15,14,34,12.70
2014,06,15,14,35,12.70
2014,06,15,14,36,12.80
2014,06,15,14,37,12.80
2014,06,15,14,38,12.80
2014,06,15,14,39,12.80
2014,06,15,14,40,12.80
2014,06,15,14,41,12.80
2014,06,15,14,42,12.90
2014,06,15,14,43,12.90
2014,06,15,14,44,12.90
2014,06,15,14,45,13.00
2014,06,15,14,46,13.00
2014,06,15,14,47,13.10
2014,06,15,14,48,13.10
2014,06,15,14,49,13.10
2014,06,15,14,50,13.10
2014,06,15,14,51,13.10
2014,06,15,14,52,13.20
2014,06,15,14,53,13.20
2014,06,15,14,54,13.20
2014,06,15,14,55,13.20
2014,06,15,14,56,13.20
2014,06,15,14,57,13.20
2014,06,15,14,58,13.30
2014,06,15,14,59,13.30
2014,06,15,15,00,13.40
2014,06,15,15,01,13.50
2014,06,15,15,02,13.60
2014,06,15,15,03,13.70
2014,06,15,15,04,13.80
2014,06,15,15,05,13.80
2014,06,15,15,06,13.90
2014,06,15,15,07,14.00
2014,06,15,15,08,14.10
2014,06,15,15,09,14.20
2014,06,15,15,10,14.30
2014,06,15,15,11,14.30
2014,06,15,15,12,14.20
2014,06,15,15,13,14.20
2014,06,15,15,14,14.20
2014,06,15,15,15,14.20
2014,06,15,15,16,14.20
2014,06,15,15,17,14.20
2014,06,15,15,18,14.20
2014,06,15,15,19,14.20
2014,06,15,15,20,14.20
2014,06,15,15,21,14.20
2014,06,15,15,22,14.20
2014,06,15,15,23,14.30
2014,06,15,15,24,14.30
2014,06,15,15,25,14.40
2014,06,15,15,26,14.40
2014,06,15,15,27,14.50
2014,06,15,15,28,14.60
2014,06,15,15,29,14.60
2014,06,15,15,30,14.60
2014,06,15,15,31,14.60
2014,06,15,15,32,14.60
2014,06,15,15,33,14.50
2014,06,15,15,34,14.50
2014,06,15,15,35,14.50
2014,06,15,15,36,14.50
2014,06,15,15,37,14.50
2014,06,15,15,38,14.50
2014,06,15,15,39,14.50
2014,06,15,15,40,14.60
2014,06,15,15,41,14.60
2014,06,15,15,42,14.60
2014,06,15,15,43,14.60
2014,06,15,15,44,14.60
2014,06,15,15,45,14.60
2014,06,15,15,46,14.60
2014,06,15,15,47,14.60
2014,06,15,15,48,14.70
2014,06,15,15,49,14.80
2014,06,15,15,50,14.80
2014,06,15,15,51,14.90
2014,06,15,15,52,15.00
2014,06,15,15,53,15.00
2014,06,15,15,54,15.00
2014,06,15,15,55,15.00
2014,06,15,15,56,15.10
2014,06,15,15,57,15.10
2014,06,15,15,58,15.20
2014,06,15,15,59,15.20
2014,06,15,16,00,15.30
2014,06,15,16,01,15.30
2014,06,15,16,02,15.40
2014,06,15,16,03,15.40
2014,06,15,16,04,15.40
2014,06,15,16,05,15.40
2014,06,15,16,06,15.30
2014,06,15,16,07,15.30
2014,06,15,16,08,15.40
2014,06,15,16,09,15.40
2014,06,15,16,10,15.40
2014,06,15,16,11,15.40
2014,06,15,16,12,15.50
2014,06,15,16,13,15.50
2014,06,15,16,14,15.60
2014,06,15,16,15,15.60
2014,06,15,16,16,15.60
2014,06,15,16,17,15.70
2014,06,15,16,18,15.70
2014,06,15,16,19,15.70
2014,06,15,16,20,15.70
2014,06,15,16,21,15.70
2014,06,15,16,22,15.70
2014,06,15,16,23,15.70
2014,06,15,16,24,15.70
2014,06,15,16,25,15.70
2014,06,15,16,26,15.70
2014,06,15,16,27,15.70
2014,06,15,16,28,15.70
2014,06,15,16,29,15.60
2014,06,15,16,30,15.60
2014,06,15,16,31,15.50
2014,06,15,16,32,15.50
2014,06,15,16,33,15.50
2014,06,15,16,34,15.50
2014,06,15,16,35,15.40
2014,06,15,16,36,15.40
2014,06,15,16,37,15.40
2014,06,15,16,38,15.40
2014,06,15,16,39,15.40
2014,06,15,16,40,15.40
2014,06,15,16,41,15.40
2014,06,15,16,42,15.30
2014,06,15,16,43,15.20
2014,06,15,16,44,15.00
2014,06,15,16,45,15.00
2014,06,15,16,46,15.00
2014,06,15,16,47,15.00
2014,06,15,16,48,15.00
2014,06,15,16,49,15.00
2014,06,15,16,50,15.00
2014,06,15,16,51,14.90
2014,06,15,16,52,14.70
2014,06,15,16,53,14.60
2014,06,15,16,54,14.50
2014,06,15,16,55,14.50
2014,06,15,16,56,14.40
2014,06,15,16,57,14.30
2014,06,15,16,58,14.30
2014,06,15,16,59,14.40
2014,06,15,17,00,14.30
2014,06,15,17,01,14.30
2014,06,15,17,02,14.30
2014,06,15,17,03,14.40
2014,06,15,17,04,14.40
2014,06,15,17,05,14.40
2014,06,15,17,06,14.50
2014,06,15,17,07,14.50
2014,06,15,17,08,14.50
2014,06,15,17,09,14.50
2014,06,15,17,10,14.60
2014,06,15,17,11,14.60
2014,06,15,17,12,14.70
2014,06,15,17,13,14.70
2014,06,15,17,14,14.70
2014,06,15,17,15,14.70
2014,06,15,17,16,14.70
2014,06,15,17,17,14.80
2014,06,15,17,18,14.80
2014,06,15,17,19,14.70
2014,06,15,17,20,14.70
2014,06,15,17,21,14.70
2014,06,15,17,22,14.60
2014,06,15,17,23,14.60
2014,06,15,17,24,14.50
2014,06,15,17,25,14.50
2014,06,15,17,26,14.60
2014,06,15,17,27,14.60